Preview of NWS' New Version of Forecast
This preview is not operational and should not be used for support decisions.

Regional Weather Roundup (RWR)

Issued by National Weather Service (NWS)

                            
000
ASUS44 KMEG 210400
RWRTN 
TENNESSEE HOURLY STATE WEATHER ROUNDUP
NATIONAL WEATHER SERVICE MEMPHIS TN
1100 PM CDT FRI SEP 20 2019

TNZ002-004-019-021-049-052-054-088>092-210500-
WEST TENNESSEE
  
CITY           SKY/WX    TMP DP  RH WIND       PRES   REMARKS
MEMPHIS INTL   FAIR      78  66  66 S10       30.16R                  
NWS MEMPHIS      N/A     55 N/A N/A MISG        N/A                   
JACKSON        FAIR      68  65  90 S3        30.18S                  
DYERSBURG      FAIR      75  66  73 CALM      30.17S                  
$$

TNZ008-025-027-028-033-062-065-066-210500-
NORTH MIDDLE TENNESSEE
  
CITY           SKY/WX    TMP DP  RH WIND       PRES   REMARKS
NASHVILLE      MOCLDY    73  61  65 S6        30.22S                  
CLARKSVILLE    FAIR      73  64  73 SE3       30.19R                  
SMYRNA         FAIR      69  64  84 S3        30.23S                  
CROSSVILLE     FAIR      63  56  78 CALM      30.31R                  
$$

TNZ061-075-076-078-094-096-097-210500-
SOUTH MIDDLE TENNESSEE
  
CITY           SKY/WX    TMP DP  RH WIND       PRES   REMARKS
$$

TNZ017-018-042-046-047-210500-
NORTHEAST TENNESSEE
  
CITY           SKY/WX    TMP DP  RH WIND       PRES   REMARKS
TRI CITIES     FAIR      63  60  90 CALM      30.30R                  
$$

TNZ012-013-036-069-073-074-210500-
CENTRAL EAST TENNESSEE
  
CITY           SKY/WX    TMP DP  RH WIND       PRES   REMARKS
KNOXVILLE      FAIR      73  60  63 CALM      30.26R                  
OAK RIDGE      FAIR      70  62  76 CALM      30.28R                  
$$

TNZ083-085-099-210500-
SOUTHEAST TENNESSEE
  
CITY           SKY/WX    TMP DP  RH WIND       PRES   REMARKS
CHATTANOOGA    FAIR      70  60  70 CALM      30.28R                  
$$

SKY/WX REPORTED AS FAIR MEANS FEW OR NO CLOUDS BELOW
12 THOUSAND FEET.